User: anonymous   Login
Location: Schommer Observatory
(40.5200°N, 74.4500°W)
Time: 13:44:22
(UTC-04:00)
Language:

N. Korean satellite - Orbit

View from above orbital plane
View from above orbital plane
View from above satellite
View from above satellite

Ground track
Ground track

The orbit data is extracted from the following two-line orbital elements,

1 39026U 12072A   18224.91128098 +.00001197 +00000-0 +46977-4 0  9992
2 39026 097.2104 233.3511 0040657 120.4450 240.0815 15.26893957314251
Epoch (UTC): 12 August 2018 21:52:14
Eccentricity: 0.0040657
inclination: 97.2104°
perigee height: 457 km
apogee height: 513 km
right ascension of ascending node: 233.3511°
argument of perigee: 120.4450°
revolutions per day: 15.26893957
mean anomaly at epoch: 240.0815°
orbit number at epoch: 31425

The dashed part of the orbit path shows where the satellite is in the earth's shadow,  

DLR